Year,Month,Day,Hour,Minute,Value (Times are PST for windspeed in km/hr)
2012,04,16,00,00,0.10
2012,04,16,00,01,0.00
2012,04,16,00,02,0.00
2012,04,16,00,03,0.00
2012,04,16,00,04,0.20
2012,04,16,00,05,0.10
2012,04,16,00,06,0.20
2012,04,16,00,07,0.00
2012,04,16,00,08,0.00
2012,04,16,00,09,0.00
2012,04,16,00,10,0.00
2012,04,16,00,11,0.50
2012,04,16,00,12,0.00
2012,04,16,00,13,0.10
2012,04,16,00,14,0.00
2012,04,16,00,15,0.00
2012,04,16,00,16,0.00
2012,04,16,00,17,0.10
2012,04,16,00,18,0.60
2012,04,16,00,19,0.00
2012,04,16,00,20,0.00
2012,04,16,00,21,0.00
2012,04,16,00,22,0.00
2012,04,16,00,23,0.00
2012,04,16,00,24,0.00
2012,04,16,00,25,0.00
2012,04,16,00,26,0.00
2012,04,16,00,27,0.00
2012,04,16,00,28,0.00
2012,04,16,00,29,0.00
2012,04,16,00,30,0.00
2012,04,16,00,31,0.00
2012,04,16,00,32,0.00
2012,04,16,00,33,0.00
2012,04,16,00,34,0.10
2012,04,16,00,35,0.20
2012,04,16,00,36,0.20
2012,04,16,00,37,0.40
2012,04,16,00,38,0.10
2012,04,16,00,39,0.00
2012,04,16,00,40,0.20
2012,04,16,00,41,0.10
2012,04,16,00,42,0.00
2012,04,16,00,43,0.00
2012,04,16,00,44,0.00
2012,04,16,00,45,0.10
2012,04,16,00,46,0.00
2012,04,16,00,47,0.20
2012,04,16,00,48,0.00
2012,04,16,00,49,0.00
2012,04,16,00,50,0.00
2012,04,16,00,51,0.00
2012,04,16,00,52,0.00
2012,04,16,00,53,0.10
2012,04,16,00,54,0.00
2012,04,16,00,55,0.00
2012,04,16,00,56,0.00
2012,04,16,00,57,0.00
2012,04,16,00,58,0.10
2012,04,16,00,59,0.90
2012,04,16,01,00,0.90
2012,04,16,01,01,0.10
2012,04,16,01,02,0.10
2012,04,16,01,03,0.00
2012,04,16,01,04,0.00
2012,04,16,01,05,0.30
2012,04,16,01,06,0.00
2012,04,16,01,07,0.00
2012,04,16,01,08,0.00
2012,04,16,01,09,0.00
2012,04,16,01,10,0.00
2012,04,16,01,11,0.00
2012,04,16,01,12,0.00
2012,04,16,01,13,0.00
2012,04,16,01,14,0.00
2012,04,16,01,15,0.00
2012,04,16,01,16,0.10
2012,04,16,01,17,0.10
2012,04,16,01,18,0.40
2012,04,16,01,19,0.00
2012,04,16,01,20,0.50
2012,04,16,01,21,0.10
2012,04,16,01,22,0.60
2012,04,16,01,23,0.30
2012,04,16,01,24,0.30
2012,04,16,01,25,0.40
2012,04,16,01,26,1.50
2012,04,16,01,27,0.50
2012,04,16,01,28,1.20
2012,04,16,01,29,2.20
2012,04,16,01,30,1.10
2012,04,16,01,31,0.10
2012,04,16,01,32,0.90
2012,04,16,01,33,2.00
2012,04,16,01,34,1.20
2012,04,16,01,35,0.20
2012,04,16,01,36,1.60
2012,04,16,01,37,0.70
2012,04,16,01,38,3.00
2012,04,16,01,39,0.40
2012,04,16,01,40,0.10
2012,04,16,01,41,0.10
2012,04,16,01,42,2.20
2012,04,16,01,43,3.40
2012,04,16,01,44,1.10
2012,04,16,01,45,1.10
2012,04,16,01,46,0.60
2012,04,16,01,47,0.70
2012,04,16,01,48,1.90
2012,04,16,01,49,0.20
2012,04,16,01,50,0.60
2012,04,16,01,51,3.50
2012,04,16,01,52,0.70
2012,04,16,01,53,0.60
2012,04,16,01,54,0.10
2012,04,16,01,55,1.50
2012,04,16,01,56,0.60
2012,04,16,01,57,0.80
2012,04,16,01,58,3.10
2012,04,16,01,59,4.00
2012,04,16,02,00,2.60
2012,04,16,02,01,0.90
2012,04,16,02,02,1.10
2012,04,16,02,03,2.10
2012,04,16,02,04,2.20
2012,04,16,02,05,2.50
2012,04,16,02,06,0.80
2012,04,16,02,07,5.80
2012,04,16,02,08,3.20
2012,04,16,02,09,2.30
2012,04,16,02,10,1.00
2012,04,16,02,11,1.80
2012,04,16,02,12,1.00
2012,04,16,02,13,2.90
2012,04,16,02,14,2.50
2012,04,16,02,15,3.30
2012,04,16,02,16,1.80
2012,04,16,02,17,6.10
2012,04,16,02,18,5.10
2012,04,16,02,19,3.10
2012,04,16,02,20,0.60
2012,04,16,02,21,1.10
2012,04,16,02,22,1.90
2012,04,16,02,23,2.50
2012,04,16,02,24,3.30
2012,04,16,02,25,2.00
2012,04,16,02,26,3.30
2012,04,16,02,27,5.70
2012,04,16,02,28,6.40
2012,04,16,02,29,5.20
2012,04,16,02,30,5.60
2012,04,16,02,31,5.10
2012,04,16,02,32,1.20
2012,04,16,02,33,2.30
2012,04,16,02,34,4.30
2012,04,16,02,35,1.40
2012,04,16,02,36,1.90
2012,04,16,02,37,4.40
2012,04,16,02,38,5.60
2012,04,16,02,39,7.10
2012,04,16,02,40,6.50
2012,04,16,02,41,3.60
2012,04,16,02,42,4.00
2012,04,16,02,43,3.50
2012,04,16,02,44,2.60
2012,04,16,02,45,3.10
2012,04,16,02,46,11.10
2012,04,16,02,47,10.30
2012,04,16,02,48,3.60
2012,04,16,02,49,5.70
2012,04,16,02,50,3.90
2012,04,16,02,51,5.10
2012,04,16,02,52,1.00
2012,04,16,02,53,5.80
2012,04,16,02,54,4.40
2012,04,16,02,55,4.70
2012,04,16,02,56,3.40
2012,04,16,02,57,1.80
2012,04,16,02,58,6.50
2012,04,16,02,59,9.30
2012,04,16,03,00,1.80
2012,04,16,03,01,3.40
2012,04,16,03,02,5.30
2012,04,16,03,03,2.00
2012,04,16,03,04,4.60
2012,04,16,03,05,8.90
2012,04,16,03,06,6.10
2012,04,16,03,07,8.90
2012,04,16,03,08,5.50
2012,04,16,03,09,4.80
2012,04,16,03,10,6.80
2012,04,16,03,11,5.40
2012,04,16,03,12,8.10
2012,04,16,03,13,15.60
2012,04,16,03,14,9.50
2012,04,16,03,15,6.00
2012,04,16,03,16,4.80
2012,04,16,03,17,5.60
2012,04,16,03,18,4.60
2012,04,16,03,19,6.40
2012,04,16,03,20,10.70
2012,04,16,03,21,4.30
2012,04,16,03,22,5.30
2012,04,16,03,23,7.80
2012,04,16,03,24,7.10
2012,04,16,03,25,5.20
2012,04,16,03,26,5.40
2012,04,16,03,27,3.80
2012,04,16,03,28,6.40
2012,04,16,03,29,3.70
2012,04,16,03,30,7.10
2012,04,16,03,31,5.30
2012,04,16,03,32,0.60
2012,04,16,03,33,5.60
2012,04,16,03,34,3.70
2012,04,16,03,35,4.50
2012,04,16,03,36,6.90
2012,04,16,03,37,9.30
2012,04,16,03,38,1.30
2012,04,16,03,39,5.30
2012,04,16,03,40,6.20
2012,04,16,03,41,1.80
2012,04,16,03,42,6.20
2012,04,16,03,43,7.80
2012,04,16,03,44,5.70
2012,04,16,03,45,2.30
2012,04,16,03,46,1.00
2012,04,16,03,47,9.20
2012,04,16,03,48,3.50
2012,04,16,03,49,5.50
2012,04,16,03,50,7.70
2012,04,16,03,51,4.40
2012,04,16,03,52,3.30
2012,04,16,03,53,2.20
2012,04,16,03,54,0.10
2012,04,16,03,55,4.60
2012,04,16,03,56,7.40
2012,04,16,03,57,3.00
2012,04,16,03,58,7.10
2012,04,16,03,59,6.00
2012,04,16,04,00,7.40
2012,04,16,04,01,2.70
2012,04,16,04,02,3.60
2012,04,16,04,03,4.70
2012,04,16,04,04,6.30
2012,04,16,04,05,12.00
2012,04,16,04,06,10.90
2012,04,16,04,07,8.70
2012,04,16,04,08,6.00
2012,04,16,04,09,8.30
2012,04,16,04,10,9.00
2012,04,16,04,11,8.10
2012,04,16,04,12,8.10
2012,04,16,04,13,5.00
2012,04,16,04,14,4.80
2012,04,16,04,15,3.90
2012,04,16,04,16,5.90
2012,04,16,04,17,7.20
2012,04,16,04,18,5.20
2012,04,16,04,19,7.40
2012,04,16,04,20,6.80
2012,04,16,04,21,4.70
2012,04,16,04,22,11.00
2012,04,16,04,23,5.20
2012,04,16,04,24,11.80
2012,04,16,04,25,8.10
2012,04,16,04,26,5.60
2012,04,16,04,27,8.60
2012,04,16,04,28,7.30
2012,04,16,04,29,9.10
2012,04,16,04,30,8.40
2012,04,16,04,31,7.20
2012,04,16,04,32,9.20
2012,04,16,04,33,9.60
2012,04,16,04,34,7.90
2012,04,16,04,35,7.60
2012,04,16,04,36,9.30
2012,04,16,04,37,9.40
2012,04,16,04,38,12.60
2012,04,16,04,39,4.50
2012,04,16,04,40,4.50
2012,04,16,04,41,8.30
2012,04,16,04,42,7.70
2012,04,16,04,43,8.50
2012,04,16,04,44,3.40
2012,04,16,04,45,7.70
2012,04,16,04,46,9.60
2012,04,16,04,47,11.80
2012,04,16,04,48,12.10
2012,04,16,04,49,9.30
2012,04,16,04,50,6.70
2012,04,16,04,51,8.60
2012,04,16,04,52,7.60
2012,04,16,04,53,8.40
2012,04,16,04,54,6.10
2012,04,16,04,55,6.90
2012,04,16,04,56,7.20
2012,04,16,04,57,10.80
2012,04,16,04,58,4.20
2012,04,16,04,59,0.40
2012,04,16,05,00,5.30
2012,04,16,05,01,1.90
2012,04,16,05,02,3.80
2012,04,16,05,03,9.10
2012,04,16,05,04,6.40
2012,04,16,05,05,8.50
2012,04,16,05,06,8.00
2012,04,16,05,07,8.00
2012,04,16,05,08,4.10
2012,04,16,05,09,0.50
2012,04,16,05,10,9.90
2012,04,16,05,11,2.30
2012,04,16,05,12,6.30
2012,04,16,05,13,8.70
2012,04,16,05,14,12.40
2012,04,16,05,15,6.70
2012,04,16,05,16,0.80
2012,04,16,05,17,2.90
2012,04,16,05,18,10.10
2012,04,16,05,19,8.40
2012,04,16,05,20,11.40
2012,04,16,05,21,8.10
2012,04,16,05,22,11.20
2012,04,16,05,23,11.30
2012,04,16,05,24,8.30
2012,04,16,05,25,8.90
2012,04,16,05,26,8.70
2012,04,16,05,27,12.00
2012,04,16,05,28,7.60
2012,04,16,05,29,7.60
2012,04,16,05,30,12.30
2012,04,16,05,31,8.50
2012,04,16,05,32,10.40
2012,04,16,05,33,4.80
2012,04,16,05,34,7.20
2012,04,16,05,35,6.90
2012,04,16,05,36,8.30
2012,04,16,05,37,1.90
2012,04,16,05,38,13.70
2012,04,16,05,39,4.70
2012,04,16,05,40,6.00
2012,04,16,05,41,8.10
2012,04,16,05,42,2.90
2012,04,16,05,43,8.30
2012,04,16,05,44,5.20
2012,04,16,05,45,2.90
2012,04,16,05,46,6.90
2012,04,16,05,47,6.50
2012,04,16,05,48,8.50
2012,04,16,05,49,9.30
2012,04,16,05,50,6.80
2012,04,16,05,51,6.40
2012,04,16,05,52,3.90
2012,04,16,05,53,8.00
2012,04,16,05,54,7.20
2012,04,16,05,55,11.80
2012,04,16,05,56,7.50
2012,04,16,05,57,3.70
2012,04,16,05,58,10.10
2012,04,16,05,59,4.60
2012,04,16,06,00,9.40
2012,04,16,06,01,4.90
2012,04,16,06,02,5.40
2012,04,16,06,03,8.70
2012,04,16,06,04,11.00
2012,04,16,06,05,9.10
2012,04,16,06,06,12.90
2012,04,16,06,07,8.90
2012,04,16,06,08,10.00
2012,04,16,06,09,8.10
2012,04,16,06,10,12.80
2012,04,16,06,11,10.10
2012,04,16,06,12,10.90
2012,04,16,06,13,7.20
2012,04,16,06,14,8.80
2012,04,16,06,15,5.90
2012,04,16,06,16,9.60
2012,04,16,06,17,8.10
2012,04,16,06,18,7.40
2012,04,16,06,19,6.50
2012,04,16,06,20,13.40
2012,04,16,06,21,6.90
2012,04,16,06,22,7.70
2012,04,16,06,23,6.00
2012,04,16,06,24,10.70
2012,04,16,06,25,4.10
2012,04,16,06,26,8.60
2012,04,16,06,27,8.00
2012,04,16,06,28,5.20
2012,04,16,06,29,10.30
2012,04,16,06,30,5.30
2012,04,16,06,31,5.70
2012,04,16,06,32,9.20
2012,04,16,06,33,3.00
2012,04,16,06,34,7.80
2012,04,16,06,35,5.10
2012,04,16,06,36,9.80
2012,04,16,06,37,12.30
2012,04,16,06,38,10.80
2012,04,16,06,39,7.20
2012,04,16,06,40,10.80
2012,04,16,06,41,8.50
2012,04,16,06,42,10.70
2012,04,16,06,43,8.50
2012,04,16,06,44,3.60
2012,04,16,06,45,12.60
2012,04,16,06,46,11.30
2012,04,16,06,47,9.20
2012,04,16,06,48,12.90
2012,04,16,06,49,11.40
2012,04,16,06,50,7.20
2012,04,16,06,51,7.60
2012,04,16,06,52,8.00
2012,04,16,06,53,10.50
2012,04,16,06,54,8.20
2012,04,16,06,55,11.60
2012,04,16,06,56,7.60
2012,04,16,06,57,3.90
2012,04,16,06,58,6.40
2012,04,16,06,59,11.70
2012,04,16,07,00,12.30
2012,04,16,07,01,9.00
2012,04,16,07,02,6.00
2012,04,16,07,03,10.90
2012,04,16,07,04,8.80
2012,04,16,07,05,12.30
2012,04,16,07,06,6.50
2012,04,16,07,07,6.40
2012,04,16,07,08,7.40
2012,04,16,07,09,8.90
2012,04,16,07,10,8.70
2012,04,16,07,11,9.20
2012,04,16,07,12,2.90
2012,04,16,07,13,2.60
2012,04,16,07,14,9.90
2012,04,16,07,15,6.40
2012,04,16,07,16,12.30
2012,04,16,07,17,10.80
2012,04,16,07,18,6.90
2012,04,16,07,19,4.30
2012,04,16,07,20,7.40
2012,04,16,07,21,8.70
2012,04,16,07,22,7.80
2012,04,16,07,23,4.60
2012,04,16,07,24,5.80
2012,04,16,07,25,2.20
2012,04,16,07,26,4.80
2012,04,16,07,27,8.10
2012,04,16,07,28,2.70
2012,04,16,07,29,0.60
2012,04,16,07,30,1.50
2012,04,16,07,31,0.20
2012,04,16,07,32,1.20
2012,04,16,07,33,1.00
2012,04,16,07,34,0.00
2012,04,16,07,35,0.10
2012,04,16,07,36,1.40
2012,04,16,07,37,1.40
2012,04,16,07,38,2.40
2012,04,16,07,39,2.70
2012,04,16,07,40,0.50
2012,04,16,07,41,2.00
2012,04,16,07,42,3.30
2012,04,16,07,43,0.20
2012,04,16,07,44,1.70
2012,04,16,07,45,7.50
2012,04,16,07,46,2.30
2012,04,16,07,47,0.60
2012,04,16,07,48,3.10
2012,04,16,07,49,2.00
2012,04,16,07,50,2.50
2012,04,16,07,51,2.50
2012,04,16,07,52,2.20
2012,04,16,07,53,0.70
2012,04,16,07,54,1.30
2012,04,16,07,55,1.30
2012,04,16,07,56,0.20
2012,04,16,07,57,2.00
2012,04,16,07,58,0.40
2012,04,16,07,59,0.90
2012,04,16,08,00,1.90
2012,04,16,08,01,1.30
2012,04,16,08,02,0.40
2012,04,16,08,03,1.50
2012,04,16,08,04,3.10
2012,04,16,08,05,4.40
2012,04,16,08,06,2.30
2012,04,16,08,07,2.30
2012,04,16,08,08,5.20
2012,04,16,08,09,1.00
2012,04,16,08,10,1.80
2012,04,16,08,11,1.50
2012,04,16,08,12,1.20
2012,04,16,08,13,3.00
2012,04,16,08,14,0.30
2012,04,16,08,15,0.70
2012,04,16,08,16,2.10
2012,04,16,08,17,1.90
2012,04,16,08,18,0.20
2012,04,16,08,19,0.00
2012,04,16,08,20,0.70
2012,04,16,08,21,0.00
2012,04,16,08,22,1.00
2012,04,16,08,23,0.60
2012,04,16,08,24,1.50
2012,04,16,08,25,0.60
2012,04,16,08,26,1.00
2012,04,16,08,27,2.00
2012,04,16,08,28,1.60
2012,04,16,08,29,0.10
2012,04,16,08,30,0.10
2012,04,16,08,31,0.00
2012,04,16,08,32,1.00
2012,04,16,08,33,2.10
2012,04,16,08,34,1.20
2012,04,16,08,35,2.90
2012,04,16,08,36,4.40
2012,04,16,08,37,2.20
2012,04,16,08,38,1.80
2012,04,16,08,39,0.00
2012,04,16,08,40,0.10
2012,04,16,08,41,0.30
2012,04,16,08,42,2.10
2012,04,16,08,43,0.20
2012,04,16,08,44,0.40
2012,04,16,08,45,0.20
2012,04,16,08,46,0.10
2012,04,16,08,47,0.00
2012,04,16,08,48,0.80
2012,04,16,08,49,0.00
2012,04,16,08,50,0.00
2012,04,16,08,51,0.00
2012,04,16,08,52,0.10
2012,04,16,08,53,0.20
2012,04,16,08,54,0.30
2012,04,16,08,55,0.00
2012,04,16,08,56,0.00
2012,04,16,08,57,0.00
2012,04,16,08,58,0.20
2012,04,16,08,59,0.10
2012,04,16,09,00,1.00
2012,04,16,09,01,0.10
2012,04,16,09,02,0.20
2012,04,16,09,03,0.00
2012,04,16,09,04,0.20
2012,04,16,09,05,0.20
2012,04,16,09,06,0.10
2012,04,16,09,07,0.20
2012,04,16,09,08,0.10
2012,04,16,09,09,0.00
2012,04,16,09,10,0.00
2012,04,16,09,11,0.00
2012,04,16,09,12,0.10
2012,04,16,09,13,0.30
2012,04,16,09,14,0.00
2012,04,16,09,15,1.20
2012,04,16,09,16,1.20
2012,04,16,09,17,0.40
2012,04,16,09,18,0.80
2012,04,16,09,19,0.60
2012,04,16,09,20,0.00
2012,04,16,09,21,1.30
2012,04,16,09,22,0.80
2012,04,16,09,23,0.10
2012,04,16,09,24,0.40
2012,04,16,09,25,1.40
2012,04,16,09,26,0.10
2012,04,16,09,27,1.10
2012,04,16,09,28,0.00
2012,04,16,09,29,0.60
2012,04,16,09,30,0.00
2012,04,16,09,31,0.10
2012,04,16,09,32,0.90
2012,04,16,09,33,0.10
2012,04,16,09,34,0.00
2012,04,16,09,35,1.00
2012,04,16,09,36,5.80
2012,04,16,09,37,3.80
2012,04,16,09,38,0.90
2012,04,16,09,39,0.60
2012,04,16,09,40,0.50
2012,04,16,09,41,0.20
2012,04,16,09,42,2.70
2012,04,16,09,43,1.70
2012,04,16,09,44,0.00
2012,04,16,09,45,0.00
2012,04,16,09,46,0.30
2012,04,16,09,47,0.20
2012,04,16,09,48,0.20
2012,04,16,09,49,1.30
2012,04,16,09,50,0.20
2012,04,16,09,51,0.00
2012,04,16,09,52,1.10
2012,04,16,09,53,0.00
2012,04,16,09,54,0.10
2012,04,16,09,55,1.70
2012,04,16,09,56,0.20
2012,04,16,09,57,0.30
2012,04,16,09,58,1.20
2012,04,16,09,59,2.00
2012,04,16,10,00,1.90
2012,04,16,10,01,3.90
2012,04,16,10,02,3.90
2012,04,16,10,03,0.90
2012,04,16,10,04,1.60
2012,04,16,10,05,4.30
2012,04,16,10,06,2.10
2012,04,16,10,07,0.50
2012,04,16,10,08,3.00
2012,04,16,10,09,1.40
2012,04,16,10,10,7.00
2012,04,16,10,11,6.60
2012,04,16,10,12,6.40
2012,04,16,10,13,6.80
2012,04,16,10,14,7.70
2012,04,16,10,15,9.10
2012,04,16,10,16,9.20
2012,04,16,10,17,9.70
2012,04,16,10,18,9.80
2012,04,16,10,19,7.60
2012,04,16,10,20,6.30
2012,04,16,10,21,6.20
2012,04,16,10,22,11.70
2012,04,16,10,23,14.60
2012,04,16,10,24,5.80
2012,04,16,10,25,11.00
2012,04,16,10,26,10.40
2012,04,16,10,27,7.50
2012,04,16,10,28,12.80
2012,04,16,10,29,14.70
2012,04,16,10,30,12.10
2012,04,16,10,31,11.10
2012,04,16,10,32,11.40
2012,04,16,10,33,6.40
2012,04,16,10,34,4.50
2012,04,16,10,35,10.20
2012,04,16,10,36,11.50
2012,04,16,10,37,11.30
2012,04,16,10,38,16.10
2012,04,16,10,39,16.60
2012,04,16,10,40,15.80
2012,04,16,10,41,13.00
2012,04,16,10,42,8.60
2012,04,16,10,43,8.60
2012,04,16,10,44,11.20
2012,04,16,10,45,14.50
2012,04,16,10,46,13.40
2012,04,16,10,47,15.50
2012,04,16,10,48,14.30
2012,04,16,10,49,19.00
2012,04,16,10,50,14.80
2012,04,16,10,51,11.70
2012,04,16,10,52,19.00
2012,04,16,10,53,19.90
2012,04,16,10,54,18.10
2012,04,16,10,55,11.90
2012,04,16,10,56,18.40
2012,04,16,10,57,13.30
2012,04,16,10,58,9.10
2012,04,16,10,59,9.30
2012,04,16,11,00,14.70
2012,04,16,11,01,11.00
2012,04,16,11,02,10.20
2012,04,16,11,03,9.40
2012,04,16,11,04,14.90
2012,04,16,11,05,22.40
2012,04,16,11,06,15.50
2012,04,16,11,07,12.40
2012,04,16,11,08,16.80
2012,04,16,11,09,16.20
2012,04,16,11,10,13.50
2012,04,16,11,11,16.50
2012,04,16,11,12,13.90
2012,04,16,11,13,27.00
2012,04,16,11,14,22.10
2012,04,16,11,15,18.20
2012,04,16,11,16,24.60
2012,04,16,11,17,20.80
2012,04,16,11,18,15.80
2012,04,16,11,19,16.30
2012,04,16,11,20,20.00
2012,04,16,11,21,18.70
2012,04,16,11,22,27.80
2012,04,16,11,23,20.80
2012,04,16,11,24,27.30
2012,04,16,11,25,24.10
2012,04,16,11,26,21.60
2012,04,16,11,27,20.90
2012,04,16,11,28,20.60
2012,04,16,11,29,20.10
2012,04,16,11,30,17.80
2012,04,16,11,31,24.80
2012,04,16,11,32,21.40
2012,04,16,11,33,23.90
2012,04,16,11,34,20.40
2012,04,16,11,35,19.40
2012,04,16,11,36,25.20
2012,04,16,11,37,29.50
2012,04,16,11,38,21.70
2012,04,16,11,39,17.20
2012,04,16,11,40,14.60
2012,04,16,11,41,19.80
2012,04,16,11,42,22.70
2012,04,16,11,43,21.20
2012,04,16,11,44,23.50
2012,04,16,11,45,22.40
2012,04,16,11,46,21.60
2012,04,16,11,47,28.80
2012,04,16,11,48,22.00
2012,04,16,11,49,29.10
2012,04,16,11,50,28.60
2012,04,16,11,51,17.90
2012,04,16,11,52,18.10
2012,04,16,11,53,24.70
2012,04,16,11,54,31.00
2012,04,16,11,55,30.60
2012,04,16,11,56,23.50
2012,04,16,11,57,26.50
2012,04,16,11,58,25.30
2012,04,16,11,59,20.20
2012,04,16,12,00,21.20
2012,04,16,12,01,28.50
2012,04,16,12,02,22.90
2012,04,16,12,03,24.40
2012,04,16,12,04,17.40
2012,04,16,12,05,21.80
2012,04,16,12,06,18.20
2012,04,16,12,07,22.90
2012,04,16,12,08,34.00
2012,04,16,12,09,27.80
2012,04,16,12,10,23.90
2012,04,16,12,11,20.60
2012,04,16,12,12,26.00
2012,04,16,12,13,18.50
2012,04,16,12,14,19.20
2012,04,16,12,15,24.10
2012,04,16,12,16,24.80
2012,04,16,12,17,20.10
2012,04,16,12,18,22.90
2012,04,16,12,19,12.70
2012,04,16,12,20,17.10
2012,04,16,12,21,16.10
2012,04,16,12,22,20.00
2012,04,16,12,23,17.90
2012,04,16,12,24,15.50
2012,04,16,12,25,15.90
2012,04,16,12,26,11.90
2012,04,16,12,27,9.80
2012,04,16,12,28,15.50
2012,04,16,12,29,10.90
2012,04,16,12,30,22.40
2012,04,16,12,31,16.50
2012,04,16,12,32,26.70
2012,04,16,12,33,27.00
2012,04,16,12,34,21.90
2012,04,16,12,35,23.70
2012,04,16,12,36,27.00
2012,04,16,12,37,20.30
2012,04,16,12,38,21.60
2012,04,16,12,39,20.00
2012,04,16,12,40,33.10
2012,04,16,12,41,20.10
2012,04,16,12,42,30.30
2012,04,16,12,43,17.60
2012,04,16,12,44,15.40
2012,04,16,12,45,21.40
2012,04,16,12,46,20.30
2012,04,16,12,47,27.20
2012,04,16,12,48,20.50
2012,04,16,12,49,24.60
2012,04,16,12,50,25.30
2012,04,16,12,51,15.90
2012,04,16,12,52,25.20
2012,04,16,12,53,23.50
2012,04,16,12,54,31.40
2012,04,16,12,55,29.70
2012,04,16,12,56,22.60
2012,04,16,12,57,24.10
2012,04,16,12,58,23.80
2012,04,16,12,59,22.80
2012,04,16,13,00,19.50
2012,04,16,13,01,32.40
2012,04,16,13,02,26.30
2012,04,16,13,03,27.40
2012,04,16,13,04,21.20
2012,04,16,13,05,19.20
2012,04,16,13,06,22.90
2012,04,16,13,07,18.60
2012,04,16,13,08,20.30
2012,04,16,13,09,20.00
2012,04,16,13,10,18.30
2012,04,16,13,11,21.30
2012,04,16,13,12,31.00
2012,04,16,13,13,35.00
2012,04,16,13,14,27.80
2012,04,16,13,15,25.20
2012,04,16,13,16,34.50
2012,04,16,13,17,24.20
2012,04,16,13,18,35.00
2012,04,16,13,19,30.60
2012,04,16,13,20,24.40
2012,04,16,13,21,22.50
2012,04,16,13,22,22.50
2012,04,16,13,23,26.40
2012,04,16,13,24,21.70
2012,04,16,13,25,24.10
2012,04,16,13,26,34.50
2012,04,16,13,27,24.90
2012,04,16,13,28,22.40
2012,04,16,13,29,28.90
2012,04,16,13,30,15.90
2012,04,16,13,31,17.30
2012,04,16,13,32,19.50
2012,04,16,13,33,26.60
2012,04,16,13,34,31.90
2012,04,16,13,35,18.70
2012,04,16,13,36,24.10
2012,04,16,13,37,30.30
2012,04,16,13,38,18.70
2012,04,16,13,39,31.00
2012,04,16,13,40,34.30
2012,04,16,13,41,22.90
2012,04,16,13,42,18.20
2012,04,16,13,43,19.30
2012,04,16,13,44,22.30
2012,04,16,13,45,28.00
2012,04,16,13,46,21.20
2012,04,16,13,47,25.40
2012,04,16,13,48,24.50
2012,04,16,13,49,17.70
2012,04,16,13,50,16.90
2012,04,16,13,51,22.70
2012,04,16,13,52,26.40
2012,04,16,13,53,24.10
2012,04,16,13,54,27.40
2012,04,16,13,55,39.10
2012,04,16,13,56,25.80
2012,04,16,13,57,22.30
2012,04,16,13,58,24.50
2012,04,16,13,59,26.80
2012,04,16,14,00,27.00
2012,04,16,14,01,34.00
2012,04,16,14,02,28.20
2012,04,16,14,03,24.80
2012,04,16,14,04,29.70
2012,04,16,14,05,25.90
2012,04,16,14,06,21.60
2012,04,16,14,07,33.00
2012,04,16,14,08,36.30
2012,04,16,14,09,32.70
2012,04,16,14,10,30.90
2012,04,16,14,11,27.30
2012,04,16,14,12,29.60
2012,04,16,14,13,27.90
2012,04,16,14,14,32.70
2012,04,16,14,15,18.10
2012,04,16,14,16,16.00
2012,04,16,14,17,24.80
2012,04,16,14,18,24.10
2012,04,16,14,19,31.20
2012,04,16,14,20,26.30
2012,04,16,14,21,20.30
2012,04,16,14,22,23.70
2012,04,16,14,23,27.10
2012,04,16,14,24,13.90
2012,04,16,14,25,21.20
2012,04,16,14,26,14.90
2012,04,16,14,27,21.10
2012,04,16,14,28,19.50
2012,04,16,14,29,26.70
2012,04,16,14,30,24.40
2012,04,16,14,31,25.30
2012,04,16,14,32,23.00
2012,04,16,14,33,23.00
2012,04,16,14,34,20.40
2012,04,16,14,35,30.20
2012,04,16,14,36,27.30
2012,04,16,14,37,18.50
2012,04,16,14,38,15.60
2012,04,16,14,39,20.60
2012,04,16,14,40,27.90
2012,04,16,14,41,22.10
2012,04,16,14,42,26.20
2012,04,16,14,43,19.80
2012,04,16,14,44,26.60
2012,04,16,14,45,26.30
2012,04,16,14,46,18.80
2012,04,16,14,47,15.50
2012,04,16,14,48,21.50
2012,04,16,14,49,27.60
2012,04,16,14,50,22.50
2012,04,16,14,51,22.30
2012,04,16,14,52,18.50
2012,04,16,14,53,27.30
2012,04,16,14,54,18.50
2012,04,16,14,55,20.90
2012,04,16,14,56,23.90
2012,04,16,14,57,28.10
2012,04,16,14,58,31.40
2012,04,16,14,59,25.40
2012,04,16,15,00,24.70
2012,04,16,15,01,29.60
2012,04,16,15,02,29.50
2012,04,16,15,03,28.60
2012,04,16,15,04,23.00
2012,04,16,15,05,32.10
2012,04,16,15,06,20.30
2012,04,16,15,07,22.60
2012,04,16,15,08,18.00
2012,04,16,15,09,20.40
2012,04,16,15,10,27.10
2012,04,16,15,11,13.10
2012,04,16,15,12,18.20
2012,04,16,15,13,21.70
2012,04,16,15,14,17.90
2012,04,16,15,15,26.30
2012,04,16,15,16,29.60
2012,04,16,15,17,22.50
2012,04,16,15,18,22.30
2012,04,16,15,19,32.30
2012,04,16,15,20,24.60
2012,04,16,15,21,28.80
2012,04,16,15,22,28.10
2012,04,16,15,23,24.50
2012,04,16,15,24,26.20
2012,04,16,15,25,28.80
2012,04,16,15,26,25.20
2012,04,16,15,27,26.70
2012,04,16,15,28,20.30
2012,04,16,15,29,22.00
2012,04,16,15,30,20.40
2012,04,16,15,31,24.10
2012,04,16,15,32,21.80
2012,04,16,15,33,19.40
2012,04,16,15,34,25.00
2012,04,16,15,35,26.10
2012,04,16,15,36,23.80
2012,04,16,15,37,19.80
2012,04,16,15,38,25.10
2012,04,16,15,39,28.40
2012,04,16,15,40,32.80
2012,04,16,15,41,24.90
2012,04,16,15,42,28.20
2012,04,16,15,43,25.80
2012,04,16,15,44,32.60
2012,04,16,15,45,19.20
2012,04,16,15,46,29.90
2012,04,16,15,47,24.10
2012,04,16,15,48,22.80
2012,04,16,15,49,21.30
2012,04,16,15,50,17.50
2012,04,16,15,51,19.20
2012,04,16,15,52,21.60
2012,04,16,15,53,23.30
2012,04,16,15,54,21.90
2012,04,16,15,55,16.10
2012,04,16,15,56,26.30
2012,04,16,15,57,27.50
2012,04,16,15,58,17.60
2012,04,16,15,59,30.70
2012,04,16,16,00,25.20
2012,04,16,16,01,23.20
2012,04,16,16,02,17.90
2012,04,16,16,03,19.00
2012,04,16,16,04,23.70
2012,04,16,16,05,25.00
2012,04,16,16,06,21.00
2012,04,16,16,07,20.50
2012,04,16,16,08,23.30
2012,04,16,16,09,23.10
2012,04,16,16,10,18.80
2012,04,16,16,11,16.20
2012,04,16,16,12,12.60
2012,04,16,16,13,22.40
2012,04,16,16,14,20.80
2012,04,16,16,15,31.70
2012,04,16,16,16,23.00
2012,04,16,16,17,24.20
2012,04,16,16,18,26.20
2012,04,16,16,19,32.60
2012,04,16,16,20,18.10
2012,04,16,16,21,14.90
2012,04,16,16,22,19.20
2012,04,16,16,23,29.70
2012,04,16,16,24,25.60
2012,04,16,16,25,29.30
2012,04,16,16,26,19.70
2012,04,16,16,27,29.00
2012,04,16,16,28,30.00
2012,04,16,16,29,34.90
2012,04,16,16,30,26.20
2012,04,16,16,31,24.30
2012,04,16,16,32,22.70
2012,04,16,16,33,30.70
2012,04,16,16,34,26.20
2012,04,16,16,35,26.10
2012,04,16,16,36,34.50
2012,04,16,16,37,31.20
2012,04,16,16,38,23.20
2012,04,16,16,39,28.60
2012,04,16,16,40,25.50
2012,04,16,16,41,20.40
2012,04,16,16,42,32.00
2012,04,16,16,43,26.60
2012,04,16,16,44,28.40
2012,04,16,16,45,17.40
2012,04,16,16,46,28.10
2012,04,16,16,47,33.20
2012,04,16,16,48,19.70
2012,04,16,16,49,26.40
2012,04,16,16,50,23.40
2012,04,16,16,51,21.00
2012,04,16,16,52,30.30
2012,04,16,16,53,33.20
2012,04,16,16,54,26.80
2012,04,16,16,55,26.60
2012,04,16,16,56,25.30
2012,04,16,16,57,18.50
2012,04,16,16,58,28.40
2012,04,16,16,59,15.60
2012,04,16,17,00,20.00
2012,04,16,17,01,32.60
2012,04,16,17,02,32.40
2012,04,16,17,03,23.30
2012,04,16,17,04,20.70
2012,04,16,17,05,26.10
2012,04,16,17,06,15.80
2012,04,16,17,07,23.30
2012,04,16,17,08,18.70
2012,04,16,17,09,17.00
2012,04,16,17,10,16.20
2012,04,16,17,11,20.00
2012,04,16,17,12,21.60
2012,04,16,17,13,12.10
2012,04,16,17,14,20.10
2012,04,16,17,15,24.00
2012,04,16,17,16,11.80
2012,04,16,17,17,20.20
2012,04,16,17,18,20.80
2012,04,16,17,19,17.30
2012,04,16,17,20,18.60
2012,04,16,17,21,28.60
2012,04,16,17,22,15.60
2012,04,16,17,23,10.40
2012,04,16,17,24,19.30
2012,04,16,17,25,21.20
2012,04,16,17,26,16.00
2012,04,16,17,27,24.60
2012,04,16,17,28,24.00
2012,04,16,17,29,26.10
2012,04,16,17,30,20.60
2012,04,16,17,31,31.10
2012,04,16,17,32,31.90
2012,04,16,17,33,20.90
2012,04,16,17,34,29.80
2012,04,16,17,35,30.70
2012,04,16,17,36,27.00
2012,04,16,17,37,28.30
2012,04,16,17,38,29.90
2012,04,16,17,39,26.50
2012,04,16,17,40,21.20
2012,04,16,17,41,21.60
2012,04,16,17,42,28.80
2012,04,16,17,43,27.00
2012,04,16,17,44,26.10